Home   Weather   Surat   Past weeks

Flag for India Past Weather in Surat, Gujarat, India — Yesterday and Last 2 Weeks

Now
64 °F

Haze.


Feels Like: 64 °F
Forecast: 60 / 89 °F
Wind: No wind

Location: Ahmadabad Airport

Current Time: Dec 10, 2016 at 12:57:48 am

Latest Report: Dec 10, 2016 at 12:30 am


Visibility: 2 mi

Pressure: 29.92 "Hg

Humidity: 83%

Dew Point: 59 °F

Location of SuratLocation

Past Weather in Surat — Graph

°F

Surat Temperature Yesterday

Maximum temperature yesterday: 91 °F (at 4:30 pm)
Minimum temperature yesterday: 55 °F (at 7:00 am)
Average temperature yesterday: 72 °F

High & Low Weather Summary for the Past Weeks

 TemperatureHumidityPressure
High91 °F (Nov 25, 3:30 pm)88% (Nov 29, 6:00 am)30.15 "Hg (Nov 29, 6:00 am)
Low55 °F (Dec 9, 7:00 am)20% (Nov 27, 2:00 pm)29.86 "Hg (Nov 25, 4:00 pm)
Average73 °F53%29.98 "Hg
* Reported Nov 24 11:30 pm — Dec 9 11:30 pm, Surat, Weather by CustomWeather, © 2016

Note: Actual official high and low records may vary slightly from our data, if they occured in-between our weather recording intervals... More about our weather records

Advertising

Surat Weather History for the Previous 24 Hours

Scroll right to see more
 ConditionsComfort  
Time TempWeatherWind HumidityBarometerVisibility
11:30 pm
Fri, Dec 9
66 °FHaze.No wind78%29.92 "Hg2 mi
11:00 pm68 °FHaze.No wind69%29.95 "Hg2 mi
10:30 pm68 °FHaze.No wind69%29.95 "Hg2 mi
10:00 pm70 °FHaze.No wind64%29.95 "Hg2 mi
9:30 pm72 °FClear.No wind50%29.92 "Hg2 mi
9:00 pm72 °FClear.No wind53%29.92 "Hg2 mi
8:30 pm72 °FClear.No wind47%29.92 "Hg2 mi
8:00 pm73 °FClear.No wind47%29.92 "Hg2 mi
7:30 pm73 °FClear.No wind50%29.92 "Hg2 mi
7:00 pm75 °FClear.No wind47%29.92 "Hg2 mi
6:30 pm79 °FClear.No wind37%29.89 "Hg2 mi
5:30 pm84 °FClear.No wind33%29.86 "Hg4 mi
4:30 pm91 °FClear.No wind21%29.86 "Hg4 mi
3:30 pm88 °FClear.No wind21%29.86 "Hg4 mi
3:00 pm90 °FClear.No wind22%29.86 "Hg4 mi
2:00 pm90 °FClear.No wind22%29.89 "Hg4 mi
1:30 pm88 °FClear.No wind25%29.92 "Hg4 mi
1:00 pm90 °FClear.No wind24%29.92 "Hg3 mi
12:30 pm88 °FClear.No wind27%29.95 "Hg3 mi
12:00 pm86 °FClear.No wind31%29.95 "Hg2 mi
11:30 am84 °FClear.No wind33%29.98 "Hg2 mi
11:00 am82 °FClear.No wind35%29.98 "Hg2 mi
10:30 am81 °FClear.No wind37%29.98 "Hg1 mi
10:00 am79 °FClear.No wind39%29.98 "Hg1 mi
9:30 am73 °FClear.No wind47%29.98 "Hg1 mi
9:00 am70 °FClear.No wind53%29.98 "Hg1 mi
8:30 am66 °FHaze.No wind60%29.98 "Hg1 mi
8:00 am59 °FHaze.No wind77%29.98 "Hg1 mi
7:30 am57 °FHaze.No wind82%29.95 "Hg1 mi
7:00 am55 °FHaze.No wind88%29.95 "Hg2 mi
6:30 am57 °FHaze.No wind82%29.95 "Hg2 mi
6:00 am59 °FHaze.No wind82%29.95 "Hg2 mi
5:30 am59 °FHaze.No wind82%29.95 "Hg2 mi
5:00 am61 °FHaze.No wind72%29.92 "Hg2 mi
4:30 am61 °FHaze.No wind68%29.92 "Hg2 mi
4:00 am63 °FHaze.No wind64%29.92 "Hg2 mi
3:30 am63 °FHaze.No wind68%29.92 "Hg2 mi
3:00 am61 °FHaze.No wind83%29.92 "Hg2 mi
2:30 am61 °FHaze.No wind83%29.95 "Hg2 mi
2:00 am61 °FHaze.No wind83%29.95 "Hg2 mi
1:30 am63 °FHaze.No wind77%29.95 "Hg2 mi
1:00 am63 °FHaze.No wind83%29.95 "Hg2 mi
12:30 am64 °FHaze.No wind73%29.95 "Hg2 mi
Weather by CustomWeather, © 2016

See weather overviewHow to use our weather pages